BM3FFG-1 Weather Reports


time (UTC)temp
C
wind
direction
speed
KPH
gust
KPH
rain 1hr
cm
rain 24hr
cm
rain mn
cm
humidity
%
barometer
mb
20260504080942 28 0.0 0.0 0.00 0.00 0.00 67 965.0
20260504044943 29 0.0 0.0 0.00 0.00 0.00 66 965.3
20260504042943 30 0.0 0.0 0.00 0.00 0.00 67 965.3
20260504040943 29 0.0 0.0 0.00 0.00 0.00 69 965.2
20260504034943 29 0.0 0.0 0.00 0.00 0.00 70 965.5
20260504032942 28 0.0 0.0 0.00 0.00 0.00 71 965.6
20260504030943 29 0.0 0.0 0.00 0.00 0.00 69 965.8
20260504024942 28 0.0 0.0 0.00 0.00 0.00 70 965.7
20260504022943 28 0.0 0.0 0.00 0.00 0.00 67 965.9
20260504020943 28 0.0 0.0 0.00 0.00 0.00 69 965.8
20260504014943 28 0.0 0.0 0.00 0.00 0.00 69 966.0
20260504012943 27 0.0 0.0 0.00 0.00 0.00 69 966.1
20260504010943 27 0.0 0.0 0.00 0.00 0.00 71 966.1
20260504004943 27 0.0 0.0 0.00 0.00 0.00 73 966.1
20260504002943 27 0.0 0.0 0.00 0.00 0.00 77 965.9
20260504000943 27 0.0 0.0 0.00 0.00 0.00 78 965.8
20260503234943 27 0.0 0.0 0.00 0.00 0.00 80 966.1
20260503232943 27 0.0 0.0 0.00 0.00 0.00 82 966.2
20260503230943 27 0.0 0.0 0.00 0.00 0.00 82 966.5
20260503224943 27 0.0 0.0 0.00 0.00 0.00 82 966.2
20260503222942 27 0.0 0.0 0.00 0.00 0.00 82 966.1
20260503220943 27 0.0 0.0 0.00 0.00 0.00 82 966.1
20260503214943 27 0.0 0.0 0.00 0.00 0.00 82 966.1
20260503212943 27 0.0 0.0 0.00 0.00 0.00 82 965.8
20260503210943 27 0.0 0.0 0.00 0.00 0.00 82 965.7
20260503204943 27 0.0 0.0 0.00 0.00 0.00 81 965.6
20260503202944 27 0.0 0.0 0.00 0.00 0.00 81 965.5
20260503200943 27 0.0 0.0 0.00 0.00 0.00 80 965.3
20260503194943 27 0.0 0.0 0.00 0.00 0.00 80 965.2
20260503192943 27 0.0 0.0 0.00 0.00 0.00 80 965.1
20260503190943 27 0.0 0.0 0.00 0.00 0.00 80 965.0
20260503184943 27 0.0 0.0 0.00 0.00 0.00 80 964.9
20260503182943 27 0.0 0.0 0.00 0.00 0.00 80 964.9
20260503180943 27 0.0 0.0 0.00 0.00 0.00 79 964.9
20260503174943 27 0.0 0.0 0.00 0.00 0.00 78 965.1
20260503172943 27 0.0 0.0 0.00 0.00 0.00 78 965.3
20260503170942 27 0.0 0.0 0.00 0.00 0.00 79 965.6
20260503150943 28 0.0 0.0 0.00 0.00 0.00 78 965.3
20260503130944 28 0.0 0.0 0.00 0.00 0.00 77 964.7